Change the Weather History Date:

Sunday, March 17, 2013

  Actual Average Record
Temperature  
Mean Temperature 27 °F 35 °F  
Max Temperature 35 °F 45 °F 75 °F (1990)
Min Temperature 18 °F 26 °F -1 °F (1916)
Degree Days  
Heating Degree Days 38 30  
Month to date heating degree days 534 555  
Since 1 July heating degree days 5072 5499  
Cooling Degree Days 0 0  
Month to date cooling degree days 0 0  
Year to date cooling degree days 0 0  
Moisture  
Dew Point 8 °F    
Average Humidity 47    
Maximum Humidity 67    
Minimum Humidity 27    
Precipitation  
Precipitation 0.00 in 0.11 in 0.94 in (1972)
Month to date precipitation 1.57 1.68  
Year to date precipitation 4.70 6.47  
Snow  
Snow 0.00 in 0.30 in 4.10 in (1982)
Month to date snowfall 11.2 6.7  
Since 1 July snowfall 41.9 53.2  
Snow Depth 0.00 in    
Sea Level Pressure  
Sea Level Pressure 30.14 in    
Wind  
Wind Speed 11 mph (WNW)    
Max Wind Speed 23 mph    
Max Gust Speed 29 mph    
Visibility 10 miles    
Events      
T = Trace of Precipitation, MM = Missing Value Source: NWS Daily Summary

Daily Weather History Graph

Daily Weather History Graph

Search for Another Location

Airport or City:

Trip Planner

Search our weather history database for the weather conditions in past years. The results will help you decide how hot, cold, wet, or windy it might be!

Date:

Astronomy

Mar. 17, 2013 Rise Set
Actual Time 7:03 AM EDT 7:04 PM EDT
Civil Twilight 6:35 AM EDT 7:32 PM EDT
Nautical Twilight 6:02 AM EDT 8:05 PM EDT
Astronomical Twilight 5:28 AM EDT 8:38 PM EDT
Moon 10:06 AM EDT (3/17) 12:17 AM EDT (3/17)
Length of Visible Light 12h 57m
Length of Day
12h 00m
Waxing Crescent, 31% of the Moon is Illuminated
Mar 17
Waxing Crescent
Mar 19
First Quarter
Mar 27
Full
Apr 3
Last Quarter
Apr 10
New

Hourly Weather History & Observations

Time (EDT) Temp. Windchill Dew Point Humidity Pressure Visibility Wind Dir Wind Speed Gust Speed Precip Events Conditions
12:51 AM 24.1 °F 16.0 °F 14.0 °F 65% 29.95 in 10.0 mi West 6.9 mph - N/A   Clear
1:51 AM 23.0 °F 12.4 °F 12.0 °F 63% 29.96 in 10.0 mi West 10.4 mph - N/A   Clear
2:51 AM 21.9 °F 13.4 °F 10.9 °F 63% 29.99 in 10.0 mi West 6.9 mph - N/A   Clear
3:51 AM 21.0 °F 10.6 °F 10.9 °F 65% 30.00 in 10.0 mi West 9.2 mph - N/A   Clear
4:51 AM 19.9 °F 13.4 °F 9.0 °F 62% 30.01 in 10.0 mi WNW 4.6 mph - N/A   Clear
5:51 AM 19.0 °F 12.3 °F 9.0 °F 65% 30.01 in 10.0 mi West 4.6 mph - N/A   Clear
6:51 AM 19.9 °F 10.1 °F 10.0 °F 65% 30.06 in 10.0 mi West 8.1 mph - N/A   Mostly Cloudy
7:51 AM 21.0 °F 14.6 °F 10.9 °F 65% 30.09 in 10.0 mi West 4.6 mph - N/A   Mostly Cloudy
8:51 AM 25.0 °F 14.2 °F 12.9 °F 60% 30.10 in 10.0 mi West 11.5 mph - N/A   Scattered Clouds
9:51 AM 26.1 °F 14.0 °F 10.0 °F 51% 30.13 in 10.0 mi WNW 15.0 mph 19.6 mph N/A   Scattered Clouds
10:51 AM 28.0 °F 17.5 °F 10.0 °F 47% 30.14 in 10.0 mi West 12.7 mph 20.7 mph N/A   Scattered Clouds
11:51 AM 30.9 °F 21.7 °F 7.0 °F 37% 30.14 in 10.0 mi West 11.5 mph - N/A   Scattered Clouds
12:51 PM 33.1 °F 22.6 °F 3.9 °F 29% 30.14 in 10.0 mi NW 16.1 mph 23.0 mph N/A   Scattered Clouds
1:51 PM 34.0 °F 23.0 °F 5.0 °F 30% 30.15 in 10.0 mi West 18.4 mph 27.6 mph N/A   Mostly Cloudy
2:51 PM 34.0 °F 23.0 °F 3.9 °F 28% 30.15 in 10.0 mi WNW 18.4 mph 23.0 mph N/A   Mostly Cloudy
3:51 PM 35.1 °F 24.8 °F 5.0 °F 28% 30.16 in 10.0 mi WNW 17.3 mph 24.2 mph N/A   Scattered Clouds
4:51 PM 34.0 °F 23.8 °F 5.0 °F 30% 30.17 in 10.0 mi West 16.1 mph 26.5 mph N/A   Scattered Clouds
5:51 PM 33.1 °F 22.6 °F 5.0 °F 31% 30.18 in 10.0 mi NW 16.1 mph 21.9 mph N/A   Scattered Clouds
6:51 PM 30.9 °F 19.8 °F 5.0 °F 33% 30.22 in 10.0 mi WNW 16.1 mph - N/A   Scattered Clouds
7:51 PM 28.9 °F 18.2 °F 5.0 °F 36% 30.25 in 10.0 mi WNW 13.8 mph 23.0 mph N/A   Scattered Clouds
8:51 PM 28.0 °F 19.3 °F 3.9 °F 36% 30.29 in 10.0 mi WNW 9.2 mph - N/A   Partly Cloudy
9:51 PM 26.1 °F 16.2 °F 5.0 °F 41% 30.31 in 10.0 mi WNW 10.4 mph - N/A   Partly Cloudy
10:51 PM 25.0 °F 19.3 °F 5.0 °F 43% 30.33 in 10.0 mi North 4.6 mph - N/A   Partly Cloudy
11:51 PM 24.1 °F 18.2 °F 3.9 °F 42% 30.35 in 10.0 mi NNE 4.6 mph - N/A   Clear